Regional Weather Roundup
Issued by NWS Sterling, VA

Home | Current Version | Previous Version | Text Only | Print | Product List | Glossary On
Versions: 1 2 3 4 5 6 7 8 9 10 11 12 13 14 15 16 17 18 19 20 21 22 23 24 25 26 27 28
000
ASUS41 KLWX 230310
RWRLWX

REGIONAL WEATHER ROUNDUP
NATIONAL WEATHER SERVICE BALTIMORE MD/WASHINGTON DC
1100 PM EDT WED OCT 22 2014

Note: "FAIR" indicates few or no clouds below 12,000 feet
with no significant weather and/or obstructions to visibility.
 TC=TEMPERATURE CELSIUS

 * =Non NWS site. Station does not report precipitation (e.g. rain,
    snow, etc.), thunder, or fog.

DCZ001-MDZ009-015-VAZ040>042-051-053>054-230400-
WASHINGTON METRO

CITY           SKY/WX    TMP DP  RH WIND       PRES   REMARKS
WASHINGTON NAT MOCLDY    56  43  61 NW20G28   29.94F
DULLES         MOCLDY    51  42  71 NW14      29.97F
ANDREWS AFB    CLOUDY    54  45  72 NW15G25   29.92S
FT BELVOIR     PTCLDY    54  43  67 NW14G22   29.95F
QUANTICO       CLOUDY    54  43  66 NW22G28   29.96F
COLLEGE PARK*  CLOUDY    54  45  71 NW9       29.93F
LEESBURG*      CLOUDY    52  45  76 N17       29.99S
MANASSAS*      CLOUDY    54  45  71 NW14G26   29.97F
GAITHERSBURG*  CLOUDY    52  43  71 NW9       29.98F

$$

MDZ006>007-011-014-230400-
BALTIMORE METRO

CITY           SKY/WX    TMP DP  RH WIND       PRES   REMARKS
BWI AIRPORT    MOCLDY    54  44  69 NW12G23   29.91F
MD SCIENCE CTR   N/A     54  44  69 MISG      29.91F
MARTIN STATE   CLOUDY    54  46  76 NW13G22   29.91S
ANNAPOLIS      LGT RAIN  56  46  69 NW20      29.90S
FORT MEADE*    MOCLDY    52  45  76 NW8G16    29.95S

$$

MDZ012-015-019>023-230400-
MARYLAND EASTERN SHORE

CITY           SKY/WX    TMP DP  RH WIND       PRES   REMARKS
OCEAN CITY     CLOUDY    53  50  89 NW16G24   29.79S
SALISBURY      CLOUDY    56  48  74 NW17G24   29.82F
BAY BRIDGE AP* DRIZZLE   54  46  76 NW14G28   29.89S
CAMBRIDGE*     CLOUDY    55  46  71 N17G26    29.86S VSB<1/4
EASTON*        DRIZZLE   55  50  81 N15G23    29.90

$$

MDZ017>025-230400-
SOUTHERN MARYLAND

CITY           SKY/WX    TMP DP  RH WIND       PRES   REMARKS
PATUXENT RIVER CLOUDY    55  47  74 NW22G31   29.89S
ST INIGOES     CLOUDY    54  45  71 NW10G18   29.89S
LEONARDTOWN*   CLOUDY    52  45  76 NW7       29.91F

$$

MDZ003>005-230400-
NORTH CENTRAL MARYLAND

CITY           SKY/WX    TMP DP  RH WIND       PRES   REMARKS
FREDERICK*     MOCLDY    55  43  62 NW8G20    30.00S
HAGERSTOWN APT PTCLDY    49  41  74 NW12      29.99F
WESTMINSTER*   CLOUDY    52  45  76 NW12G20   29.94F

$$

MDZ501>502-230400-
WESTERN MARYLAND

CITY           SKY/WX    TMP DP  RH WIND       PRES   REMARKS
OAKLAND*       FOG       37 N/A N/A NW7       30.10F VSB 1/4
CUMBERLAND*    CLOUDY    52  41  66 NW10G21   30.12S

$$

VAZ025>031-230400-
SHENANDOAH VALLEY

CITY           SKY/WX    TMP DP  RH WIND       PRES   REMARKS
WINCHESTER*    CLEAR     52  37  58 NW13G22   30.02F
FRONT ROYAL*   MOCLDY    50  41  71 NW13G20   30.02F
LURAY*         CLOUDY    54  43  66 NW6       30.05F
NEW MARKET*    CLOUDY    50  41  71 CALM      30.06F
STAUNTON*      CLOUDY    50  41  71 NE3       30.08S
WAYNESBORO*    FAIR      45  39  80 CALM      30.05F

$$

WVZ021-048>050-054>055-230400-
EASTERN WEST VIRGINIA PANHANDLE

CITY           SKY/WX    TMP DP  RH WIND       PRES   REMARKS
MARTINSBURG    CLEAR     51  39  63 NW12G24   30.02F
PETERSBURG*    CLOUDY    51  40  66 NW14G20   30.11F

$$

VAZ036>039-050-230400-
CENTRAL FOOTHILLS

CITY           SKY/WX    TMP DP  RH WIND       PRES   REMARKS
CHARLOTTESVILL CLEAR     52  40  63 N6        30.01R
CULPEPER*      CLEAR     54  43  66 NW15G22   30.00F
ORANGE*        CLEAR     52  43  71 NW12      30.01S
GORDONSVILLE*  FAIR      51  41  68 N8        29.99S
WARRENTON*     FAIR      53  47  81 NW13G22   29.98F

$$

VAZ055>057-230400-
NORTH AND CENTRAL PIEDMONT

CITY           SKY/WX    TMP DP  RH WIND       PRES   REMARKS
FREDERICKSBRG* CLOUDY    54  44  69 NW8G16    29.96F
STAFFORD*      CLOUDY    52  42  69 NW17G26   30.00F

$$

NCZ024-NYZ072-PAZ021-071-VAZ022-071-230400-
OTHER REGIONAL OBSERVATIONS

CITY           SKY/WX    TMP DP  RH WIND       PRES   REMARKS
NEW YORK CITY  RAIN      50  47  89 N12G24    29.76F FOG
PHILADELPHIA   LGT RAIN  53  48  83 NW17G26   29.80F
PITTSBURGH     MOCLDY    47  40  76 N9        30.18S
ROANOKE        PTCLDY    52  38  58 NW15G24   30.11S
RICHMOND       CLOUDY    54  43  66 NW17G26   29.97R
RALEIGH        CLEAR     52  41  66 VRB5      30.03S

$$

ANZ530>537-230400-
MARINE OBSERVATIONS

STATION/POSITION TIME  TEMP    WIND        PRES
                       AIR SEA DIR/SP/G
                 (UTC) (F)     (DEG/KT/KT) (MB)
THOMAS PT LIGHT  0300   54 62  320/ 20/ 24 1013.0F
BALT KEY BRIDGE  0300   55     310/ 21/ 26 1012.2S
COVE POINT       0300   55     350/ 25/ 29 1011.7S
LEWISETTA        0300   56 61  330/ 15/ 18 1012.0F
SOLOMONS ISLAND  0300      64                N/A
PINEY POINT      0300          340/ 24/ 29   N/A

$$




USA.gov is the U.S. government's official web portal to all federal, state and local government web resources and services.